Weather in Cupertino

United States     37°19′21″N   122°01′55″W
temp.,
°C
wind,
m/s
gust,
m/s
humid.,
%
clouds,
%
prec.,
mm/h
press.,
hPa
HPBL,
m
23 may, mon
mon2323:00+13wsw125853 0.0 101775
02:00+12w11635 0.0 101659
05:00+11wnw11675 0.0 101647
08:00+16nnw234896 0.0 1016209
11:00+25n34265 0.0 1014669
14:00+29nnw5518100 0.0 10131156
17:00+28nw442095 0.0 1011951
20:00+18wnw22465 0.0 1011104
24 may, tue
tue2423:00+14wsw11562 0.0 101251
02:00+13ssw11590 0.0 101127
05:00+13nnw11585 0.0 101013
08:00+19nnw23441 0.0 1011172
11:00+27n232211 0.0 1010573
14:00+32nnw341514 0.0 10091158
17:00+33nnw44125 0.0 10071046
20:00+24nnw23320 0.0 100892
25 may, wed
wed2523:00+20w11350 0.0 100911
02:00+19s11345 0.0 100812
05:00+18s003663 0.0 100811
08:00+24s112914 0.0 1009128
11:00+32n211988 0.0 1008887
14:00+35nw3218100 0.0 10071747
17:00+33w232136 0.0 10071028
20:00+22ssw233930 0.0 1009137
26 may, thu
thu2623:00+16ssw33523 0.0 1011116
02:00+14ssw22630 0.0 101090
05:00+12ssw33798 0.0 1011102
08:00+18ssw1253100 0.0 1012300
11:00+25s2232100 0.0 1012744
14:00+29wnw2321100 0.0 10111450
17:00+25wnw2232100 0.0 1012579
20:00+19w2247100 0.0 1013138
27 may, fri
fri2723:00+15w125496 0.0 101586
02:00+14wsw1157100 0.0 101547
05:00+14sw1159100 0.0 101522
08:00+18nw1244100 0.0 1016222
11:00+25nnw352573 0.0 10161077
14:00+28nw5520100 0.0 10151638
17:00+24nw4628100 0.0 10151000
20:00+17nw244897 0.0 1016303